www.pogodaiklimat.ru

Погода и климат >> Архив погоды >> Греция >> Наксос


ПОГОДА на Наксосе

  • Прогноз погоды на Наксосе
  • Монитор погоды на Наксосе

АРХИВ ПОГОДЫ на Наксосе

Время (UTC), дата Ветер
(напр.,м/с)
 
Видим.   Явления Облачность Т
(С)
Тd
(С)
f
(%)
Тe
(С)
Тes
(С)
Комфортность P
(гПа)
Po
(гПа)
Тmin
(С)
Tmax
(С)
R
(мм)
R24
(мм)
S
(см)
06 15.08 З 33
{5}
2700 м 1/0 1000 м
[Ci fib]
+23.2 +18.5 75 +29 +29 душно 1007.9 1007.4 +19.6 26
12 15.08 З 31
{6}
2700 м 1/0 1000 м
[Ci fib]
+31.4 +16.6 41 +35 +35 очень
душно
1007.8 1007.3 26
03 16.08 В 3
{4}
15 км 8/3 900 м
[Cu hum Ac und Ci fib]
+20.4 +16.1 76 +24 +24 комфорт 1010.9 1010.3 70
06 16.08 штиль 0
{3}
15 км 4/1 750 м
[Cu hum Ac und]
+24.0 +17.6 67 +28 +32 душно 1011.9 1011.4 +20.2 1 250
09 16.08 СВ 4
{7}
15 км 5/1 750 м
[Cu hum Ac und]
+28.0 +17.6 53 +32 +40 душно 1012.3 1011.8
12 16.08 ЮЗ 4
{7}
10 км 5/4 600 м
[Cu Sc Ac lent]
+30.0 +15.5 41 +33 +38 душно 1011.5 1011.0 26
15 16.08 ЮЗ 4
{6}
10 км 3/3 600 м
[Cu med, cong]
+30.0 +13.4 36 +31 +33 жарко 1010.5 1009.9
18 16.08 нст 2
{7}
10 км 6/5 600 м
[Cu Sc Ac lent]
+27.0 +15.6 50 +30 +30 душно 1010.9 1010.3 +30.0 26
03 17.08 штиль 0
{5}
50 км гроза, ливневой дождь ?/? +21.2 +18.3 84 +25 +25 комфорт 1012.7 1012.2 3
06 17.08 0
{6}
10 км R/R <50 м
[]
+26.0 +17.1 58 1010.2 1008.9 +24.4 23
09 17.08 0 н/о
12 17.08
{5}
2000 м н/о +28.0 +16.1 48 1013.3 1012.7 26
15 17.08 штиль 0
{5}
50 км {дождь} ?/? +27.0 +17.5 56 +31 +31 душно 1013.1 1012.6 1
18 17.08
{6}
30 км {дождь, дымка} н/о +21.0 +16.0 73 1014.0 1013.5 +28.0 1
21 17.08 0 н/о
12 18.08 ЮЗ 4
{6}
15 км 4/4 1000 м
[Sc]
+27.8 +14.6 44 +30 +36 жарко 1015.6 1015.1 25
03 19.08 штиль 0
{3}
2700 м 5/5 1000 м
[]
+14.4 +13.0 91 +14 +14 1016.9 1016.3
06 19.08 штиль 0
{3}
2700 м 1/1 1000 м
[]
+20.0 +13.0 64 +22 +27 комфорт 1017.5 1017.0 +14.4 25
09 19.08 З 36
{5}
2700 м 5/5 1000 м
[]
+28.4 +7.4 27 +28 +28 жарко 1017.1 1016.6
15 19.08 З 33
{10}
2700 м 5/1 1000 м
[Cu hum]
+31.4 +11.8 30 +32 +32 жарко 1015.8 1015.3
18 19.08 З 15
{7}
2700 м 1/1 1000 м
[]
+26.0 +17.8 61 +30 +30 душно 1017.3 1016.7 +32.0 25
03 20.08 З 15
{5}
2700 м 5/5 1000 м
[]
+20.0 +18.4 91 +19 +19 1017.8 1017.3
06 20.08 З 31
{6}
2700 м 1/1 1000 м
[Cu hum]
+23.6 +15.3 60 +27 +27 жарко 1018.6 1018.0 +20.0 25
09 20.08 З 31
{6}
2700 м 5/1 1000 м
[Cu hum]
+27.6 +10.8 35 +28 +28 жарко 1018.9 1018.3
12 20.08 В 6
{10}
15 км 3/3 600 м
[Cu hum]
+30.4 +10.2 29 +30 +34 жарко 1017.8 1017.3
03 21.08 Ю 20
{6}
2700 м 5/5 1000 м
[]
+16.2 +13.4 83 +9 +9 1017.4 1016.9
06 21.08 З 31
{5}
2700 м 1/1 1000 м
[]
+21.2 +14.8 67 +24 +24 комфорт 1018.2 1017.6 +16.0 25
09 21.08 Ю 6
{10}
15 км ясно +28.2 +14.3 43 +30 +36 жарко 1017.3 1016.7
15 21.08 ЮЗ 5
{7}
15 км 5/4 600 м
[Sc Ac und]
+29.6 +18.9 53 +35 +36 очень
душно
1015.3 1014.7
18 21.08 З 33
{6}
2700 м 1/0 1000 м
[Ac und]
+28.4 +19.2 57 +34 +34 очень
душно
1015.5 1015.0 +31.8 25
03 22.08 штиль 0
{3}
2700 м 5/5 1000 м
[]
+21.6 +16.7 74 +26 +26 душно 1015.8 1015.3

 

Местоположение метеостанции Наксос (Греция): широта 37.10 долгота 25.38 высота над уровнем моря 9 м.

В архиве по умолчанию представлена погода на Наксосе за последнюю неделю. Архивные данные за месяц целиком и за предыдущие месяцы, начиная с января 2011 года, Вы можете получить, выбрав интересующий диапазон дат из раскрывающегося списка и нажав кнопку "Ввод!".


*Определитесь, кто Вы:
робот инопланетянин человек

Внимание! Время в таблицах - всемирное. Для получения местного времени необходимо прибавить поправку, которая равна 2 ч.

Смотрите также архив погоды в соседних городах и на ближайших метеорологических станциях:

Погода в Паросе (Греция) (26 км)
Погода в Миконосе (Греция) (38 км)
Погода в Сиросе (Греция) (52 км)
Погода на Милосе (Греция) (93 км)
Погода в Леросе (Греция) (98 км)
Погода в Астипалее (Греция) (105 км)
Погода в Икарии (Греция) (107 км)
Погода в Калимносе (Греция) (139 км)
Погода на Самосе (Греция) (152 км)
Погода на Хиосе (Греция) (152 км)

Пояснения к столбцам:

Ветер - указаны скорость ветра в м/с - средняя за 10 мин, порывы в срок и между сроками (в фигурных скобках) и направление, откуда дует ветер: С - северный, СВ - северо-восточный, В - восточный, ЮВ - юго-восточный, Ю - южный, ЮЗ - юго-западный, З - западный, СЗ - северо-западный.
Видимость - горизонтальная дальность видимости в метрах или километрах. При видимости от 1 до 10 км при отсутствии осадков обычно наблюдается дымка, при ухудшении видимости до 1 км и менее - туман. В сухую погоду видимость может ухудшаться дымом, пылью или мглою.
Явления - указаны атмосферные явления, наблюдавшиеся в срок или в последний час перед сроком; фигурными скобками обозначены явления, наблюдавшиеся между сроками (за 1-3 часа до срока); квадратными скобками обозначены град или гололедные отложения с указанием их диаметра в мм.
Облачность - указаны через наклонную черту общая и нижняя облачность в баллах и высота нижней границы облаков в метрах; квадратными скобками обозначены формы облаков: Ci - перистые, Cs - перисто-слоистые, Cc - перисто-кучевые, Ac - высококучевые, As - высокослоистые, Sc - слоисто-кучевые, Ns - слоисто-дождевые, Cu - кучевые, Cb - кучево-дождевые. Подробнее классификацию облаков см. в Атласе облаков (PDF).
T - Температура воздуха - температура, измеренная на высоте 2 м над землей.
Td - Температура точки росы - температура, при понижении до которой содержащийся в воздухе водяной пар достигнет насыщения.
f - Относительная влажность воздуха - влажноcть воздуха, измеренная на высоте 2 м над землей.
Te - Эффективная температура - температура, которую ощущает одетый по сезону человек в тени. Характеристика душности погоды. При расчете учитывается влияние влажности воздуха и скорости ветра на теплоощущения человека.
Tes - Эффективная температура на солнце - температура, которую ощущает человек, с поправкой на солнечный нагрев. Характеристика знойности погоды. Зависит от высоты солнца над горизонтом, облачности и скорости ветра. Ночью, в пасмурную погоду, а также при ветре 12 м/с и более поправка равна нулю.
P - Атмосферное давление - приведенное к уровню моря атмосферное давление.
Po - Атмосферное давление - измеренное на уровне метеостанции атмосферное давление.
Tmin - Минимальная температура - минимум температуры воздуха на высоте 2 м над землей.
Tmax - Максимальная температура - максимум температуры воздуха на высоте 2 м над землей.
R - Количество осадков - Количество выпавших осадков за период времени, мм. При наведении курсора мыши на число - период времени, за который выпало указанное количество осадков.
R24 - Количество осадков - Количество выпавших осадков за 24 часа, мм.
S - Снежный покров - Высота снежного покрова, см. При наведении курсора мыши на число - состояние снежного покрова и степень покрытия местности в баллах.